Погода в Ларбе

Россия / Амурская область     55°30′05″N   123°07′16″E
темп.,
°C
ветер,
м/с
пор.,
м/с
влажн.,
%
обл.,
%
осадки,
мм/ч
давл.,
гПа
погр.,
м
7 марта, вс
вс700:00−26св0190100 0.0 102619
03:00−26ссз0093100 0.0 102519
06:00−26ссз1195100 0.0 102519
09:00−24зсз1193100 0.0 1025112
12:00−20зсз2388100 0.0 1024364
15:00−15зсз2383100 0.0 1022507
18:00−17в1192100 0.0 102220
21:00−21юв1210081 0.0 102220
8 марта, пн
пн800:00−21вюв129990 0.0 102020
03:00−17в119795 0.4 101744
06:00−19всв1199100 0.1 101520
09:00−16всв1197100 0.2 101449
12:00−11св1194100 0.5 1010199
15:00−9сз2390100 1.9 1008396
18:00−10ссз2595100 0.8 1009301
21:00−12сз2295100 1.9 101221
9 марта, вт
вт900:00−11зсз41485100 0.0 1014575
03:00−15зсз368492 0.0 1017102
06:00−18з238819 0.0 102021
09:00−16з378416 0.0 1022224
12:00−10сз58730 0.0 1023898
15:00−8зсз35696 0.0 10221085
18:00−11ююз23801 0.0 102235
21:00−15ю229039 0.0 102220
10 марта, ср
ср1000:00−16ююв2286100 0.0 101920
03:00−15ююв1287100 0.0 101720
06:00−15юв1188100 0.0 101620
09:00−12с1292100 0.1 1015119
12:00−9з3488100 0.7 1015383
15:00−7сз3681100 0.7 1017876
18:00−12с127569 0.1 102021
21:00−15ююв117576 0.1 102520
11 марта, чт
чт1100:00−18вюв118197 0.0 102820
03:00−20вюв118582 0.0 102920
06:00−23юв11920 0.0 103120
09:00−19вюв11870 0.0 103035
12:00−13ссз018186 0.0 1028334
15:00−9с128289 0.0 1025442
18:00−11в119178 0.0 102521
21:00−14юв129586 0.0 102720